Weather History for Keene, NH

Change the Weather History Date:

Thursday, October 10, 2013

  Actual Average Record
Temperature  
Mean Temperature 49 °F -  
Max Temperature 57 °F 62 °F 87 °F (1949)
Min Temperature 41 °F 38 °F 17 °F (1929)
Degree Days  
Heating Degree Days 16    
Moisture  
Dew Point 44 °F    
Average Humidity 74    
Maximum Humidity 87    
Minimum Humidity 59    
Precipitation  
Precipitation 0.00 in - - ()
Sea Level Pressure  
Sea Level Pressure 30.25 in    
Wind  
Wind Speed 1 mph (SSW)    
Max Wind Speed 7 mph    
Max Gust Speed -    
Visibility 10 miles    
Events      
Averages and records for this station are not official NWS values.
T = Trace of Precipitation, MM = Missing Value Source: NWS Daily Summary

Daily Weather History Graph

Daily Weather History Graph

Search for Another Location

Airport:

Trip Planner

Search our weather history database for the weather conditions in past years. The results will help you decide how hot, cold, wet, or windy it might be!

Date:

Astronomy

Oct. 10, 2013 Rise Set
Actual Time 6:56 AM EDT 6:14 PM EDT
Civil Twilight 6:28 AM EDT 6:42 PM EDT
Nautical Twilight 5:55 AM EDT 7:15 PM EDT
Astronomical Twilight 5:22 AM EDT 7:48 PM EDT
Moon 12:51 PM EDT (10/10) 10:43 PM EDT (10/10)
Length of Visible Light 12h 14m
Length of Day
11h 17m
Waxing Crescent, 35% of the Moon is Illuminated
Oct 10
Waxing Crescent
Oct 11
First Quarter
Oct 18
Full
Oct 26
Last Quarter
Nov 3
New

Hourly Weather History & Observations

Time (EDT) Temp. Windchill Dew Point Humidity Pressure Visibility Wind Dir Wind Speed Gust Speed Precip Events Conditions
12:15 AM - - - N/A% - - North - - N/A   Unknown
12:35 AM - - - N/A% - - North - - N/A   Unknown
12:55 AM - - - N/A% - - North - - N/A   Unknown
1:15 AM - - - N/A% - - North - - N/A   Unknown
1:35 AM - - - N/A% - - North - - N/A   Unknown
1:55 AM - - - N/A% - - North - - N/A   Unknown
2:15 AM - - - N/A% - - North - - N/A   Unknown
2:35 AM - - - N/A% - - North - - N/A   Unknown
2:55 AM - - - N/A% - - North - - N/A   Unknown
3:15 AM - - - N/A% - - North - - N/A   Unknown
3:35 AM - - - N/A% - - North - - N/A   Unknown
3:55 AM - - - N/A% - - North - - N/A   Unknown
4:15 AM - - - N/A% - - North - - N/A   Unknown
4:35 AM - - - N/A% - - North - - N/A   Unknown
4:55 AM - - - N/A% - - North - - N/A   Unknown
5:15 AM - - - N/A% - - North - - N/A   Unknown
5:35 AM - - - N/A% - - North - - N/A   Unknown
5:55 AM - - - N/A% - - North - - N/A   Unknown
6:15 AM - - - N/A% - - North - - N/A   Unknown
6:35 AM - - - N/A% - - North - - N/A   Unknown
6:55 AM - - - N/A% - - North - - N/A   Unknown
7:15 AM - - - N/A% - - North - - N/A   Unknown
7:35 AM - - - N/A% - - North - - N/A   Unknown
7:55 AM - - - N/A% - - North - - N/A   Unknown
8:15 AM - - - N/A% - - North - - N/A   Unknown
8:35 AM - - - N/A% - - North - - N/A   Unknown
8:55 AM - - - N/A% - - North - - N/A   Unknown
9:35 AM - - - N/A% - - North - - N/A   Unknown
9:55 AM - - - N/A% - - North - - N/A   Unknown
10:15 AM 41.0 °F - 35.6 °F 81% 30.34 in 0.5 mi Calm Calm - N/A   Overcast
10:35 AM 42.8 °F - 37.4 °F 81% 30.33 in 2.5 mi Calm Calm - N/A   Overcast
10:55 AM 44.6 °F - 39.2 °F 81% 30.32 in 10.0 mi Calm Calm - N/A   Mostly Cloudy
11:15 AM 46.4 °F - 39.2 °F 76% 30.32 in 7.0 mi Calm Calm - N/A   Clear
11:35 AM 50.0 °F - 41.0 °F 71% 30.31 in 10.0 mi Calm Calm - N/A   Clear
11:55 AM 53.6 °F - 42.8 °F 67% 30.31 in 10.0 mi Calm Calm - N/A   Clear
12:15 PM 53.6 °F - 42.8 °F 67% 30.30 in 10.0 mi Calm Calm - N/A   Clear
12:35 PM 55.4 °F - 42.8 °F 63% 30.29 in 10.0 mi South 3.5 mph - N/A   Clear
12:55 PM 55.4 °F - 42.8 °F 63% 30.28 in 10.0 mi Calm Calm - N/A   Clear
1:15 PM 57.2 °F - 42.8 °F 59% 30.28 in 10.0 mi SSW 3.5 mph - N/A   Clear
1:35 PM 55.4 °F - 42.8 °F 63% 30.27 in 10.0 mi Calm Calm - N/A   Clear
1:55 PM 57.2 °F - 42.8 °F 59% 30.26 in 10.0 mi SSW 4.6 mph - N/A   Clear
2:15 PM 57.2 °F - 42.8 °F 59% 30.26 in 10.0 mi SSW 3.5 mph - N/A   Clear
2:35 PM 57.2 °F - 44.6 °F 63% 30.26 in 10.0 mi SSW 6.9 mph - N/A   Clear
2:55 PM 57.2 °F - 44.6 °F 63% 30.26 in 10.0 mi SSW 4.6 mph - N/A   Clear
3:15 PM 57.2 °F - 44.6 °F 63% 30.25 in 10.0 mi South 4.6 mph - N/A   Clear
3:35 PM 57.2 °F - 44.6 °F 63% 30.24 in 10.0 mi Calm Calm - N/A   Clear
3:55 PM 57.2 °F - 44.6 °F 63% 30.24 in 10.0 mi Calm Calm - N/A   Clear
4:15 PM 57.2 °F - 44.6 °F 63% 30.23 in 10.0 mi Calm Calm - N/A   Clear
4:35 PM 57.2 °F - 44.6 °F 63% 30.23 in 10.0 mi Calm Calm - N/A   Clear
4:55 PM 55.4 °F - 46.4 °F 72% 30.22 in 10.0 mi Calm Calm - N/A   Clear
5:15 PM 55.4 °F - 46.4 °F 72% 30.21 in 10.0 mi NNE 5.8 mph - N/A   Clear
5:35 PM 55.4 °F - 46.4 °F 72% 30.22 in 10.0 mi Calm Calm - N/A   Clear
5:55 PM 55.4 °F - 46.4 °F 72% 30.21 in 10.0 mi Calm Calm - N/A   Clear
6:15 PM 53.6 °F - 46.4 °F 77% 30.22 in 10.0 mi SW 3.5 mph - N/A   Clear
6:35 PM 53.6 °F - 44.6 °F 72% 30.22 in 10.0 mi South 3.5 mph - N/A   Clear
6:55 PM 51.8 °F - 44.6 °F 76% 30.22 in 10.0 mi Calm Calm - N/A   Clear
7:15 PM 51.8 °F - 44.6 °F 76% 30.22 in 10.0 mi Calm Calm - N/A   Clear
7:35 PM 50.0 °F - 44.6 °F 82% 30.22 in 10.0 mi Calm Calm - N/A   Clear
7:55 PM 50.0 °F - 44.6 °F 82% 30.23 in 10.0 mi Calm Calm - N/A   Clear
8:15 PM 50.0 °F - 44.6 °F 82% 30.22 in 10.0 mi Calm Calm - N/A   Clear
8:35 PM 48.2 °F - 44.6 °F 87% 30.22 in 10.0 mi Calm Calm - N/A   Clear
8:55 PM 48.2 °F - 44.6 °F 87% 30.23 in 10.0 mi SSW 6.9 mph - N/A   Clear
9:15 PM 48.2 °F - 44.6 °F 87% 30.22 in 10.0 mi Calm Calm - N/A   Clear
9:35 PM 48.2 °F - 44.6 °F 87% 30.22 in 10.0 mi NNE 4.6 mph - N/A   Clear
9:55 PM 48.2 °F - 44.6 °F 87% 30.21 in 10.0 mi Calm Calm - N/A   Clear
10:15 PM 48.2 °F - 44.6 °F 87% 30.22 in 10.0 mi Calm Calm - N/A   Clear
10:35 PM 48.2 °F - 44.6 °F 87% 30.21 in 9.0 mi Calm Calm - N/A   Clear
10:55 PM 48.2 °F - 44.6 °F 87% 30.20 in 10.0 mi Calm Calm - N/A   Clear
11:15 PM 46.4 °F 44.3 °F 42.8 °F 87% 30.21 in 9.0 mi SSW 4.6 mph - N/A   Clear
11:35 PM 48.2 °F - 42.8 °F 82% 30.21 in 10.0 mi SSW 3.5 mph - N/A   Clear
11:55 PM 48.2 °F - 42.8 °F 82% 30.20 in 10.0 mi Calm Calm - N/A   Clear